Regional Weather Roundup
Issued by NWS Newport/Morehead, NC

Current Version | Previous Version | Graphics & Text | Print | Product List | Glossary Off
Versions: 1 2 3 4 5 6 7 8 9 10 11 12 13 14 15 16 17 18 19 20 21 22 23 24 25 26 27 28 29 30 31 32 33 34 35 36 37 38 39 40 41 42 43 44 45 46 47 48 49 50

000
ASUS42 KMHX 020210
RWRMHX
WEATHER ROUNDUP FOR EASTERN NORTH CAROLINA
NATIONAL WEATHER SERVICE NEWPORT/MOREHEAD CITY NC
1000 PM EDT WED OCT 01 2014

NOTE: "FAIR" INDICATES FEW OR NO CLOUDS BELOW 12,000 FEET
WITH NO SIGNIFICANT WEATHER AND/OR OBSTRUCTIONS TO VISIBILITY

NCZ015>017-031-032-045>047-102-103-020300-
NORTH COAST

CITY           SKY/WX    TMP DP  RH WIND       PRES   REMARKS
EDENTON        CLEAR     65  63  93 CALM      30.04R
ELIZABETH CITY MOCLDY    68  64  87 NE8       30.04R
KITTY HAWK     CLEAR     68  63  82 NE5       30.02R
MANTEO         CLEAR     68  63  83 NE9       30.03S

$$

NCZ045>047-081-094-103-104-020300-
CENTRAL COAST

CITY           SKY/WX    TMP DP  RH WIND       PRES   REMARKS
FRISCO         PTCLDY    67  65  93 VRB5      30.02R
SWANQUARTER      N/A     66 N/A N/A NE5       30.00R

$$

NCZ095-097-098-100-101-020300-
SOUTHERN COAST

CITY           SKY/WX    TMP DP  RH WIND       PRES   REMARKS
BEAUFORT       PTCLDY    70  66  87 NE5       30.03R
CEDAR ISLAND     N/A     72 N/A N/A NE8       30.06S
JACKSONVILLE   CLEAR     67  65  93 CALM      30.03R
NEWPORT        NOT AVBL
PINEY ISLAND   CLEAR     73  65  75 NE9       30.02S
WILMINGTON     CLEAR     67  66  97 CALM      30.02S


$$

NCZ011>013-027>030-043-044-078>080-089-090>093-098-020300-
COASTAL PLAIN

CITY           SKY/WX    TMP DP  RH WIND       PRES   REMARKS
AHOSKIE        PTCLDY    66  63  89 CALM      30.05R
CLINTON        CLEAR     65  65 100 CALM      30.03S FOG
ELIZABETHTOWN  CLEAR     68  67  95 CALM      30.03S
GOLDSBORO      CLEAR     65  65  98 CALM      30.01R
GREENVILLE     CLEAR     63  63 100 CALM      30.05R FOG
HAVELOCK       PTCLDY    67  64  90 SE5       30.04R
KENANSVILLE    CLEAR     64  62  96 CALM      30.03F
KINSTON        CLEAR     64  63  94 CALM      30.03R FOG
NEW BERN       CLEAR     67  64  90 CALM      30.04R
RICHLANDS      CLEAR     64  61  88 CALM      30.03S
ROANOKE RAPIDS NOT AVBL
ROCKY MOUNT    FOG       63  62  97 CALM      30.04R VSB 1/2
WASHINGTON     CLEAR     65  64  93 CALM      30.05R
WHITEVILLE     CLEAR     67  65  93 CALM      30.03R

$$

AMZ130-135-150-152-154-156-158-170-250-252-270-ANZ085-086-088-633-658-670-020300-
MARINE OBSERVATIONS

STATION/POSITION TIME  TEMP    WIND        PRES    WAVE   SWELL
                       AIR SEA DIR/SP/G            HT/PER HT/PER
                 (UTC) (F)     (DEG/KT/KT) (MB)    (FT/S) (FT/S)
CHESAPEAKE LIGHT 0100   69      50/ 12/ 12 1017.5
BUOY 44014       0200   69 71   10/ 14/ 16 1016.1    5/ 7   3/ 7
DUCK             0100   70 73   50/ 11/ 12 1016.1
2E DUCK          NOT AVBL
OREGON INLET     0100   69 74   20/ 11/ 15 1016.4
BUOY 44095       NOT AVBL
20E OREGON INLET NOT AVBL
HATTERAS CG      0100   70 75   40/  7/ 10 1016.8
DIAMOND BUOY     0200   71      10/ 16/ 17 1016.0    2/ 8   2/ 8
CAPE LOOKOUT     0100   74      50/ 10/ 12 1016.4
BEAUFORT LAB     0100   71 76   40/  3/  4 1016.2
30 SE NEW RIVER  0200   76 79   60/  8/ 10 1016.2    2/ 7   2/ 7
5 SE WRIGHTSVILL 0100   72 76  110/  2/  4   N/A
BUOY 41002       0150   80 80   30/ 14/ 16 1015.0    3/ 7   2/ 7
BUOY 41004       0200   78 81   70/ 10/ 12 1016.0    2/ 5   2/ 5

$$



USA.gov is the U.S. government's official web portal to all federal, state and local government web resources and services.